Location: Brantley
(31.5822°N, 86.2569°W)
Time: 19:22:19
(UTC+00:00)

Courier 1B Rocket - Pass Details

Date: 20 February 2026
Orbit: 920 x 1201 km, 28.2° (Epoch: 10 March)

Event Time Altitude Azimuth Distance (km) Brightness Sun altitude
Rises 01:48:45 0° 262° (W) 3,545 9.1 -29.1°
Reaches altitude 10° 01:51:20 10° 260° (W) 2,610 8.1 -29.6°
Enters shadow 01:56:57 63° 209° (SSW) 1,040 5.1 -30.8°
Maximum altitude 01:57:32 66° 179° (S) 1,019 - -30.9°
Drops below altitude 10° 02:04:01 10° 98° (E) 2,727 - -32.3°
Sets 02:06:46 0° 96° (E) 3,716 - -32.9°
